Time,TemperatureF,DewpointF,PressureIn,WindDirection,WindDirectionDegrees,WindSpeedMPH,WindSpeedGustMPH,Humidity,HourlyPrecipIn,Conditions,Clouds,dailyrainin,SoftwareType,DateUTC
2013-11-03 00:00:00,52.3,45.3,30.18,NNE,22,0.0,32.0,77,11.41,,,0.00,VWS V13.01,2013-11-03 05:00:00,
2013-11-03 00:12:00,51.7,45.1,30.18,NNE,22,0.0,32.0,78,11.41,,,0.00,VWS V13.01,2013-11-03 05:12:00,
2013-11-03 00:17:00,51.4,45.1,30.18,NNE,22,0.0,32.0,79,11.41,,,0.00,VWS V13.01,2013-11-03 05:17:00,
2013-11-03 00:22:00,51.3,45.0,30.18,NNE,22,0.0,32.0,79,11.41,,,0.00,VWS V13.01,2013-11-03 05:22:00,
2013-11-03 00:27:00,51.1,44.8,30.18,NNE,22,0.0,32.0,79,11.41,,,0.00,VWS V13.01,2013-11-03 05:27:00,
2013-11-03 00:32:00,50.8,44.5,30.17,NNE,22,0.0,32.0,79,11.41,,,0.00,VWS V13.01,2013-11-03 05:32:00,
2013-11-03 00:37:00,50.3,44.0,30.17,NNE,22,0.0,32.0,79,11.41,,,0.00,VWS V13.01,2013-11-03 05:37:00,
2013-11-03 00:42:00,50.0,44.1,30.17,NNE,22,0.0,32.0,80,11.41,,,0.00,VWS V13.01,2013-11-03 05:42:00,
2013-11-03 00:47:00,49.7,43.8,30.17,NNE,22,0.0,32.0,80,11.41,,,0.00,VWS V13.01,2013-11-03 05:47:00,
2013-11-03 00:52:00,49.4,43.5,30.17,NNE,22,0.0,32.0,80,11.41,,,0.00,VWS V13.01,2013-11-03 05:52:00,
2013-11-03 00:57:00,49.1,43.2,30.17,NNE,22,0.0,32.0,80,11.41,,,0.00,VWS V13.01,2013-11-03 05:57:00,
2013-11-03 01:00:00,47.8,42.6,30.15,NNE,22,0.0,32.0,82,11.41,,,0.00,VWS V13.01,2013-11-03 06:00:00,
2013-11-03 01:01:00,47.8,42.6,30.15,NNE,22,0.0,32.0,82,11.41,,,0.00,VWS V13.01,2013-11-03 06:01:00,
2013-11-03 01:02:00,48.8,42.9,30.17,NNE,22,0.0,32.0,80,11.41,,,0.00,VWS V13.01,2013-11-03 06:02:00,
2013-11-03 01:03:00,47.8,42.6,30.15,NNE,22,0.0,32.0,82,11.41,,,0.00,VWS V13.01,2013-11-03 06:03:00,
2013-11-03 01:04:00,47.8,42.6,30.15,NNE,22,0.0,32.0,82,11.41,,,0.00,VWS V13.01,2013-11-03 06:04:00,
2013-11-03 01:05:00,47.8,42.6,30.15,NNE,22,0.0,32.0,82,11.41,,,0.00,VWS V13.01,2013-11-03 06:05:00,
2013-11-03 01:06:00,47.8,42.6,30.15,NNE,22,0.0,32.0,82,11.41,,,0.00,VWS V13.01,2013-11-03 06:06:00,
2013-11-03 01:07:00,48.5,42.6,30.17,NNE,22,0.0,32.0,80,11.41,,,0.00,VWS V13.01,2013-11-03 06:07:00,
2013-11-03 01:08:00,47.8,42.6,30.15,NNE,22,0.0,32.0,82,11.41,,,0.00,VWS V13.01,2013-11-03 06:08:00,
2013-11-03 01:09:00,47.8,42.6,30.15,NNE,22,0.0,32.0,82,11.41,,,0.00,VWS V13.01,2013-11-03 06:09:00,
2013-11-03 01:10:00,47.8,42.6,30.15,NNE,22,0.0,32.0,82,11.41,,,0.00,VWS V13.01,2013-11-03 06:10:00,
2013-11-03 01:11:00,47.8,42.6,30.15,NNE,22,0.0,32.0,82,11.41,,,0.00,VWS V13.01,2013-11-03 06:11:00,
2013-11-03 01:12:00,48.3,42.4,30.17,NNE,22,0.0,32.0,80,11.41,,,0.00,VWS V13.01,2013-11-03 06:12:00,
2013-11-03 01:13:00,47.8,42.6,30.15,NNE,22,0.0,32.0,82,11.41,,,0.00,VWS V13.01,2013-11-03 06:13:00,
2013-11-03 01:17:00,48.2,42.3,30.17,NNE,22,0.0,32.0,80,11.41,,,0.00,VWS V13.01,2013-11-03 06:17:00,
2013-11-03 01:22:00,48.1,42.2,30.17,NNE,22,0.0,32.0,80,11.41,,,0.00,VWS V13.01,2013-11-03 06:22:00,
2013-11-03 01:27:00,48.1,42.5,30.17,NNE,22,0.0,32.0,81,11.41,,,0.00,VWS V13.01,2013-11-03 06:27:00,
2013-11-03 01:32:00,48.1,42.5,30.16,NNE,22,0.0,32.0,81,11.41,,,0.00,VWS V13.01,2013-11-03 06:32:00,
2013-11-03 01:37:00,48.1,42.5,30.16,NNE,22,0.0,32.0,81,11.41,,,0.00,VWS V13.01,2013-11-03 06:37:00,
2013-11-03 01:42:00,47.9,42.4,30.16,NNE,22,0.0,32.0,81,11.41,,,0.00,VWS V13.01,2013-11-03 06:42:00,
2013-11-03 01:47:00,47.7,42.2,30.15,NNE,22,0.0,32.0,81,11.41,,,0.00,VWS V13.01,2013-11-03 06:47:00,
2013-11-03 01:52:00,47.7,42.2,30.15,NNE,22,0.0,32.0,81,11.41,,,0.00,VWS V13.01,2013-11-03 06:52:00,
2013-11-03 01:57:00,47.7,42.5,30.15,NNE,22,0.0,32.0,82,11.41,,,0.00,VWS V13.01,2013-11-03 06:57:00,
2013-11-03 01:08:00,47.8,42.6,30.15,NNE,22,0.0,32.0,82,11.41,,,0.00,VWS V13.01,2013-11-03 07:08:00,
2013-11-03 01:13:00,47.8,42.6,30.15,NNE,22,0.0,32.0,82,11.41,,,0.00,VWS V13.01,2013-11-03 07:13:00,
2013-11-03 01:18:00,47.8,42.6,30.15,NNE,22,0.0,32.0,82,11.41,,,0.00,VWS V13.01,2013-11-03 07:18:00,
2013-11-03 01:23:00,47.7,42.5,30.15,NNE,22,0.0,32.0,82,11.41,,,0.00,VWS V13.01,2013-11-03 07:23:00,
2013-11-03 01:28:00,47.6,42.4,30.15,NNE,22,0.0,32.0,82,11.41,,,0.00,VWS V13.01,2013-11-03 07:28:00,
2013-11-03 01:33:00,47.6,42.7,30.15,NNE,22,0.0,32.0,83,11.41,,,0.00,VWS V13.01,2013-11-03 07:33:00,
2013-11-03 01:38:00,47.5,42.6,30.15,NNE,22,0.0,32.0,83,11.41,,,0.00,VWS V13.01,2013-11-03 07:38:00,
2013-11-03 01:43:00,47.5,42.6,30.15,NNE,22,0.0,32.0,83,11.41,,,0.00,VWS V13.01,2013-11-03 07:43:00,
2013-11-03 01:48:00,47.4,42.5,30.14,NNE,22,0.0,32.0,83,11.41,,,0.00,VWS V13.01,2013-11-03 07:48:00,
2013-11-03 01:53:00,47.3,42.4,30.14,NNE,22,0.0,32.0,83,11.41,,,0.00,VWS V13.01,2013-11-03 07:53:00,
2013-11-03 01:58:00,47.2,42.3,30.14,NNE,22,0.0,32.0,83,11.41,,,0.00,VWS V13.01,2013-11-03 07:58:00,
2013-11-03 02:03:00,47.2,42.3,30.14,NNE,22,0.0,32.0,83,11.41,,,0.00,VWS V13.01,2013-11-03 08:03:00,
2013-11-03 02:08:00,47.0,42.1,30.14,NNE,22,0.0,32.0,83,11.41,,,0.00,VWS V13.01,2013-11-03 08:08:00,
2013-11-03 02:13:00,46.9,42.0,30.14,NNE,22,0.0,32.0,83,11.41,,,0.00,VWS V13.01,2013-11-03 08:13:00,
2013-11-03 02:18:00,46.9,42.0,30.14,NNE,22,0.0,32.0,83,11.41,,,0.00,VWS V13.01,2013-11-03 08:18:00,
2013-11-03 02:23:00,46.9,42.3,30.14,NNE,22,0.0,32.0,84,11.41,,,0.00,VWS V13.01,2013-11-03 08:23:00,
2013-11-03 02:28:00,46.9,42.3,30.14,NNE,22,0.0,32.0,84,11.41,,,0.00,VWS V13.01,2013-11-03 08:28:00,
2013-11-03 02:33:00,46.9,42.3,30.14,NNE,22,0.0,32.0,84,11.41,,,0.00,VWS V13.01,2013-11-03 08:33:00,
2013-11-03 02:38:00,46.9,42.6,30.14,NNE,22,0.0,32.0,85,11.41,,,0.00,VWS V13.01,2013-11-03 08:38:00,
2013-11-03 02:44:00,46.9,42.6,30.14,NNE,22,0.0,32.0,85,11.41,,,0.00,VWS V13.01,2013-11-03 08:44:00,
2013-11-03 02:49:00,46.8,42.5,30.14,NNE,22,0.0,32.0,85,11.41,,,0.00,VWS V13.01,2013-11-03 08:49:00,
2013-11-03 02:54:00,46.8,42.5,30.14,NNE,22,0.0,32.0,85,11.41,,,0.00,VWS V13.01,2013-11-03 08:54:00,
2013-11-03 02:59:00,46.7,42.4,30.14,NNE,22,0.0,32.0,85,11.41,,,0.00,VWS V13.01,2013-11-03 08:59:00,
2013-11-03 03:04:00,46.7,42.4,30.13,NNE,22,0.0,32.0,85,11.41,,,0.00,VWS V13.01,2013-11-03 09:04:00,
2013-11-03 03:09:00,46.8,42.5,30.13,NNE,22,0.0,32.0,85,11.41,,,0.00,VWS V13.01,2013-11-03 09:09:00,
2013-11-03 03:14:00,46.9,42.9,30.13,NNE,22,0.0,32.0,86,11.41,,,0.00,VWS V13.01,2013-11-03 09:14:00,
2013-11-03 03:19:00,46.9,42.9,30.12,NNE,22,0.0,32.0,86,11.41,,,0.00,VWS V13.01,2013-11-03 09:19:00,
2013-11-03 03:24:00,46.9,42.9,30.12,NNE,22,0.0,32.0,86,11.41,,,0.00,VWS V13.01,2013-11-03 09:24:00,
2013-11-03 03:29:00,46.8,42.8,30.12,NNE,22,0.0,32.0,86,11.41,,,0.00,VWS V13.01,2013-11-03 09:29:00,
2013-11-03 03:34:00,46.8,43.1,30.12,NNE,22,0.0,32.0,87,11.41,,,0.00,VWS V13.01,2013-11-03 09:34:00,
2013-11-03 03:39:00,46.8,43.1,30.12,NNE,22,0.0,32.0,87,11.41,,,0.00,VWS V13.01,2013-11-03 09:39:00,
2013-11-03 03:44:00,46.7,43.0,30.12,NNE,22,0.0,32.0,87,11.41,,,0.00,VWS V13.01,2013-11-03 09:44:00,
2013-11-03 03:49:00,46.7,43.0,30.12,NNE,22,0.0,32.0,87,11.41,,,0.00,VWS V13.01,2013-11-03 09:49:00,
2013-11-03 03:54:00,46.7,43.0,30.12,NNE,22,0.0,32.0,87,11.41,,,0.00,VWS V13.01,2013-11-03 09:54:00,
2013-11-03 03:59:00,46.7,43.3,30.12,NNE,22,0.0,32.0,88,11.41,,,0.00,VWS V13.01,2013-11-03 09:59:00,
2013-11-03 04:12:00,46.5,43.1,30.12,NNE,22,0.0,32.0,88,11.41,,,0.00,VWS V13.01,2013-11-03 10:12:00,
2013-11-03 04:17:00,46.4,43.0,30.12,NNE,22,0.0,32.0,88,11.41,,,0.00,VWS V13.01,2013-11-03 10:17:00,
2013-11-03 04:22:00,46.3,43.0,30.12,NNE,22,0.0,32.0,88,11.41,,,0.00,VWS V13.01,2013-11-03 10:22:00,
2013-11-03 04:27:00,46.3,43.0,30.12,NNE,22,0.0,32.0,88,11.41,,,0.00,VWS V13.01,2013-11-03 10:27:00,
2013-11-03 04:32:00,46.3,43.0,30.12,NNE,22,0.0,32.0,88,11.41,,,0.00,VWS V13.01,2013-11-03 10:32:00,
2013-11-03 04:37:00,46.3,43.0,30.12,NNE,22,0.0,32.0,88,11.41,,,0.00,VWS V13.01,2013-11-03 10:37:00,
2013-11-03 04:42:00,46.2,42.8,30.12,NNE,22,0.0,32.0,88,11.41,,,0.00,VWS V13.01,2013-11-03 10:42:00,
2013-11-03 04:47:00,46.1,43.0,30.12,NNE,22,0.0,32.0,89,11.41,,,0.00,VWS V13.01,2013-11-03 10:47:00,
2013-11-03 04:52:00,46.1,43.0,30.12,NNE,22,0.0,32.0,89,11.41,,,0.00,VWS V13.01,2013-11-03 10:52:00,
2013-11-03 04:57:00,46.0,43.0,30.12,NNE,22,0.0,32.0,89,11.41,,,0.00,VWS V13.01,2013-11-03 10:57:00,
2013-11-03 05:02:00,45.8,42.8,30.12,NNE,22,0.0,32.0,89,11.41,,,0.00,VWS V13.01,2013-11-03 11:02:00,
2013-11-03 05:07:00,45.5,42.5,30.12,NNE,22,0.0,32.0,89,11.41,,,0.00,VWS V13.01,2013-11-03 11:07:00,
2013-11-03 05:12:00,45.3,42.3,30.12,NNE,22,0.0,32.0,89,11.41,,,0.00,VWS V13.01,2013-11-03 11:12:00,
2013-11-03 05:17:00,45.1,42.1,30.12,NNE,22,0.0,32.0,89,11.41,,,0.00,VWS V13.01,2013-11-03 11:17:00,
2013-11-03 05:22:00,45.0,42.0,30.12,NNE,22,0.0,32.0,89,11.41,,,0.00,VWS V13.01,2013-11-03 11:22:00,
2013-11-03 05:27:00,44.7,41.7,30.12,NNE,22,0.0,32.0,89,11.41,,,0.00,VWS V13.01,2013-11-03 11:27:00,
2013-11-03 05:32:00,44.4,41.4,30.12,NNE,22,0.0,32.0,89,11.41,,,0.00,VWS V13.01,2013-11-03 11:32:00,
2013-11-03 05:37:00,44.2,41.5,30.12,NNE,22,0.0,32.0,90,11.41,,,0.00,VWS V13.01,2013-11-03 11:37:00,
2013-11-03 05:42:00,44.2,41.5,30.12,NNE,22,0.0,32.0,90,11.41,,,0.00,VWS V13.01,2013-11-03 11:42:00,
2013-11-03 05:47:00,44.2,41.5,30.13,NNE,22,0.0,32.0,90,11.41,,,0.00,VWS V13.01,2013-11-03 11:47:00,
2013-11-03 05:52:00,44.2,41.5,30.13,NNE,22,0.0,32.0,90,11.41,,,0.00,VWS V13.01,2013-11-03 11:52:00,
2013-11-03 05:57:00,44.1,41.4,30.13,NNE,22,0.0,32.0,90,11.41,,,0.00,VWS V13.01,2013-11-03 11:57:00,
2013-11-03 06:02:00,44.1,41.4,30.13,NNE,22,0.0,32.0,90,11.41,,,0.00,VWS V13.01,2013-11-03 12:02:00,
2013-11-03 06:07:00,44.0,41.3,30.13,NNE,22,0.0,32.0,90,11.41,,,0.00,VWS V13.01,2013-11-03 12:07:00,
2013-11-03 06:12:00,43.9,41.2,30.13,NNE,22,0.0,32.0,90,11.41,,,0.00,VWS V13.01,2013-11-03 12:12:00,
2013-11-03 06:17:00,43.8,41.1,30.13,NNE,22,0.0,32.0,90,11.41,,,0.00,VWS V13.01,2013-11-03 12:17:00,
2013-11-03 06:22:00,43.7,41.0,30.13,NNE,22,0.0,32.0,90,11.41,,,0.00,VWS V13.01,2013-11-03 12:22:00,
2013-11-03 06:27:00,43.6,40.9,30.13,NNE,22,0.0,32.0,90,11.41,,,0.00,VWS V13.01,2013-11-03 12:27:00,
2013-11-03 06:32:00,43.4,40.7,30.13,NNE,22,0.0,32.0,90,11.41,,,0.00,VWS V13.01,2013-11-03 12:32:00,
2013-11-03 06:37:00,43.3,40.6,30.13,NNE,22,0.0,32.0,90,11.41,,,0.00,VWS V13.01,2013-11-03 12:37:00,
2013-11-03 06:42:00,43.2,40.8,30.13,NNE,22,0.0,32.0,91,11.41,,,0.00,VWS V13.01,2013-11-03 12:42:00,
2013-11-03 06:48:00,43.1,40.4,30.13,NNE,22,0.0,32.0,90,11.41,,,0.00,VWS V13.01,2013-11-03 12:48:00,
2013-11-03 06:53:00,42.9,40.5,30.13,NNE,22,0.0,32.0,91,11.41,,,0.00,VWS V13.01,2013-11-03 12:53:00,
2013-11-03 06:58:00,42.8,40.4,30.13,NNE,22,0.0,32.0,91,11.41,,,0.00,VWS V13.01,2013-11-03 12:58:00,
2013-11-03 07:03:00,42.7,40.3,30.13,NNE,22,0.0,32.0,91,11.41,,,0.00,VWS V13.01,2013-11-03 13:03:00,
2013-11-03 07:08:00,42.7,40.3,30.13,NNE,22,0.0,32.0,91,11.41,,,0.00,VWS V13.01,2013-11-03 13:08:00,
2013-11-03 07:13:00,42.7,40.3,30.13,NNE,22,0.0,32.0,91,11.41,,,0.00,VWS V13.01,2013-11-03 13:13:00,
2013-11-03 07:18:00,42.7,40.3,30.13,NNE,22,0.0,32.0,91,11.41,,,0.00,VWS V13.01,2013-11-03 13:18:00,
2013-11-03 07:23:00,42.8,40.4,30.13,NNE,22,0.0,32.0,91,11.41,,,0.00,VWS V13.01,2013-11-03 13:23:00,
2013-11-03 07:28:00,42.9,40.5,30.13,NNE,22,0.0,32.0,91,11.41,,,0.00,VWS V13.01,2013-11-03 13:28:00,
2013-11-03 07:33:00,43.1,40.7,30.13,NNE,22,0.0,32.0,91,11.41,,,0.00,VWS V13.01,2013-11-03 13:33:00,
2013-11-03 07:38:00,43.3,40.8,30.13,NNE,22,0.0,32.0,91,11.41,,,0.00,VWS V13.01,2013-11-03 13:38:00,
2013-11-03 07:43:00,43.6,41.2,30.13,NNE,22,0.0,32.0,91,11.41,,,0.00,VWS V13.01,2013-11-03 13:43:00,
2013-11-03 07:48:00,44.0,41.8,30.13,NNE,22,0.0,32.0,92,11.41,,,0.00,VWS V13.01,2013-11-03 13:48:00,
2013-11-03 07:53:00,44.3,42.1,30.13,NNE,22,0.0,32.0,92,11.41,,,0.00,VWS V13.01,2013-11-03 13:53:00,
2013-11-03 07:58:00,44.6,42.4,30.13,NNE,22,0.0,32.0,92,11.41,,,0.00,VWS V13.01,2013-11-03 13:58:00,
2013-11-03 08:03:00,45.0,42.8,30.13,NNE,22,0.0,32.0,92,11.41,,,0.00,VWS V13.01,2013-11-03 14:03:00,
2013-11-03 08:08:00,45.6,43.4,30.13,NNE,22,0.0,32.0,92,11.41,,,0.00,VWS V13.01,2013-11-03 14:08:00,
2013-11-03 08:13:00,46.7,44.8,30.13,NNE,22,0.0,32.0,93,11.41,,,0.00,VWS V13.01,2013-11-03 14:13:00,
2013-11-03 08:18:00,47.2,45.3,30.13,NNE,22,0.0,32.0,93,11.41,,,0.00,VWS V13.01,2013-11-03 14:18:00,
2013-11-03 08:23:00,47.8,45.9,30.13,NNE,22,0.0,32.0,93,11.41,,,0.00,VWS V13.01,2013-11-03 14:23:00,
2013-11-03 08:28:00,48.5,46.6,30.13,NNE,22,0.0,32.0,93,11.41,,,0.00,VWS V13.01,2013-11-03 14:28:00,
2013-11-03 08:33:00,49.2,47.3,30.13,NNE,22,0.0,32.0,93,11.41,,,0.00,VWS V13.01,2013-11-03 14:33:00,
2013-11-03 08:38:00,49.9,48.0,30.13,NNE,22,0.0,32.0,93,11.41,,,0.00,VWS V13.01,2013-11-03 14:38:00,
2013-11-03 08:43:00,50.2,48.0,30.13,NNE,22,0.0,32.0,92,11.41,,,0.00,VWS V13.01,2013-11-03 14:43:00,
2013-11-03 08:48:00,50.9,48.7,30.14,NNE,22,0.0,32.0,92,11.41,,,0.00,VWS V13.01,2013-11-03 14:48:00,
2013-11-03 08:53:00,51.4,48.6,30.14,NNE,22,0.0,32.0,90,11.41,,,0.00,VWS V13.01,2013-11-03 14:53:00,
2013-11-03 08:58:00,51.9,48.2,30.14,NNE,25,0.0,32.0,87,11.41,,,0.00,VWS V13.01,2013-11-03 14:58:00,
2013-11-03 09:03:00,52.7,47.7,30.14,NNE,25,0.0,32.0,83,11.41,,,0.00,VWS V13.01,2013-11-03 15:03:00,
2013-11-03 09:08:00,53.7,47.0,30.14,NNE,25,0.0,32.0,78,11.41,,,0.00,VWS V13.01,2013-11-03 15:08:00,
2013-11-03 09:13:00,54.7,45.5,30.14,South,171,0.0,32.0,71,11.41,,,0.00,VWS V13.01,2013-11-03 15:13:00,
2013-11-03 09:18:00,55.4,43.8,30.14,South,171,0.0,32.0,65,11.41,,,0.00,VWS V13.01,2013-11-03 15:18:00,
2013-11-03 09:23:00,56.1,43.7,30.14,South,172,0.0,32.0,63,11.41,,,0.00,VWS V13.01,2013-11-03 15:23:00,
2013-11-03 09:28:00,56.6,43.8,30.14,South,172,0.0,32.0,62,11.41,,,0.00,VWS V13.01,2013-11-03 15:28:00,
2013-11-03 09:33:00,57.0,42.8,30.14,SSE,161,0.0,32.0,59,11.41,,,0.00,VWS V13.01,2013-11-03 15:33:00,
2013-11-03 09:38:00,57.7,43.5,30.14,SSE,160,0.0,32.0,59,11.41,,,0.00,VWS V13.01,2013-11-03 15:38:00,
2013-11-03 09:43:00,57.9,43.2,30.14,SSE,163,0.0,32.0,58,11.41,,,0.00,VWS V13.01,2013-11-03 15:43:00,
2013-11-03 09:48:00,58.5,43.3,30.13,SSE,163,0.0,32.0,57,11.41,,,0.00,VWS V13.01,2013-11-03 15:48:00,
2013-11-03 09:53:00,59.0,42.9,30.13,SSE,156,5.0,32.0,55,11.41,,,0.00,VWS V13.01,2013-11-03 15:53:00,
2013-11-03 09:58:00,59.0,42.9,30.13,SSE,159,0.0,32.0,55,11.41,,,0.00,VWS V13.01,2013-11-03 15:58:00,
2013-11-03 10:03:00,59.4,42.3,30.13,SSE,159,7.0,32.0,53,11.41,,,0.00,VWS V13.01,2013-11-03 16:03:00,
2013-11-03 10:08:00,59.4,41.8,30.13,SSE,159,0.0,32.0,52,11.41,,,0.00,VWS V13.01,2013-11-03 16:08:00,
2013-11-03 10:13:00,59.8,41.1,30.13,SSE,159,0.0,32.0,50,11.41,,,0.00,VWS V13.01,2013-11-03 16:13:00,
2013-11-03 10:18:00,60.7,42.5,30.13,South,180,0.0,32.0,51,11.41,,,0.00,VWS V13.01,2013-11-03 16:18:00,
2013-11-03 10:23:00,60.4,40.6,30.13,SSE,150,7.0,32.0,48,11.41,,,0.00,VWS V13.01,2013-11-03 16:23:00,
2013-11-03 10:28:00,60.5,40.7,30.13,SSE,150,0.0,32.0,48,11.41,,,0.00,VWS V13.01,2013-11-03 16:28:00,
2013-11-03 10:33:00,60.8,41.0,30.12,SSE,150,0.0,32.0,48,11.41,,,0.00,VWS V13.01,2013-11-03 16:33:00,
2013-11-03 10:38:00,61.1,41.3,30.12,SSE,149,5.0,32.0,48,11.41,,,0.00,VWS V13.01,2013-11-03 16:38:00,
2013-11-03 10:44:00,61.9,43.1,30.12,SSE,152,0.0,32.0,50,11.41,,,0.00,VWS V13.01,2013-11-03 16:44:00,
2013-11-03 10:49:00,62.8,40.6,30.12,SSE,163,0.0,32.0,44,11.41,,,0.00,VWS V13.01,2013-11-03 16:49:00,
2013-11-03 10:54:00,62.2,40.0,30.12,South,169,0.0,32.0,44,11.41,,,0.00,VWS V13.01,2013-11-03 16:54:00,
2013-11-03 10:59:00,62.1,40.5,30.12,SSE,161,0.0,32.0,45,11.41,,,0.00,VWS V13.01,2013-11-03 16:59:00,
2013-11-03 11:04:00,62.2,40.6,30.13,SSE,161,0.0,32.0,45,11.41,,,0.00,VWS V13.01,2013-11-03 17:04:00,
2013-11-03 11:09:00,62.6,40.4,30.13,SSE,161,0.0,32.0,44,11.41,,,0.00,VWS V13.01,2013-11-03 17:09:00,
2013-11-03 11:14:00,63.9,41.6,30.13,SSE,161,0.0,32.0,44,11.41,,,0.00,VWS V13.01,2013-11-03 17:14:00,
2013-11-03 11:19:00,63.2,39.8,30.12,South,172,0.0,32.0,42,11.41,,,0.00,VWS V13.01,2013-11-03 17:19:00,
2013-11-03 11:24:00,63.4,40.5,30.12,South,182,0.0,32.0,43,11.41,,,0.00,VWS V13.01,2013-11-03 17:24:00,
2013-11-03 11:29:00,63.2,40.3,30.12,SSW,196,0.0,32.0,43,11.41,,,0.00,VWS V13.01,2013-11-03 17:29:00,
2013-11-03 11:34:00,63.9,40.4,30.11,SSW,196,0.0,32.0,42,11.41,,,0.00,VWS V13.01,2013-11-03 17:34:00,
2013-11-03 11:39:00,63.9,40.4,30.11,SSW,196,0.0,32.0,42,11.41,,,0.00,VWS V13.01,2013-11-03 17:39:00,
2013-11-03 11:44:00,64.5,41.5,30.11,SSW,200,0.0,32.0,43,11.41,,,0.00,VWS V13.01,2013-11-03 17:44:00,
2013-11-03 11:49:00,64.2,40.7,30.11,SSW,197,0.0,32.0,42,11.41,,,0.00,VWS V13.01,2013-11-03 17:49:00,
2013-11-03 11:54:00,64.9,41.9,30.11,SSW,197,0.0,32.0,43,11.41,,,0.00,VWS V13.01,2013-11-03 17:54:00,
2013-11-03 11:59:00,65.7,42.0,30.11,SSW,194,0.0,32.0,42,11.41,,,0.00,VWS V13.01,2013-11-03 17:59:00,
2013-11-03 12:04:00,66.7,41.0,30.09,SSW,194,0.0,32.0,39,11.41,,,0.00,VWS V13.01,2013-11-03 18:04:00,
2013-11-03 12:09:00,64.7,40.5,30.09,South,180,0.0,32.0,41,11.41,,,0.00,VWS V13.01,2013-11-03 18:09:00,
2013-11-03 12:14:00,64.7,40.5,30.09,SSE,159,5.0,32.0,41,11.41,,,0.00,VWS V13.01,2013-11-03 18:14:00,
2013-11-03 12:19:00,64.9,41.9,30.07,SSW,205,0.0,32.0,43,11.41,,,0.00,VWS V13.01,2013-11-03 18:19:00,
2013-11-03 12:24:00,64.8,39.9,30.07,SSW,199,0.0,32.0,40,11.41,,,0.00,VWS V13.01,2013-11-03 18:24:00,
2013-11-03 12:29:00,64.6,41.6,30.07,SSE,163,9.0,32.0,43,11.41,,,0.00,VWS V13.01,2013-11-03 18:29:00,
2013-11-03 12:34:00,65.2,41.5,30.06,SSE,163,0.0,32.0,42,11.41,,,0.00,VWS V13.01,2013-11-03 18:34:00,
2013-11-03 12:39:00,65.4,41.1,30.06,SSE,160,8.0,32.0,41,11.41,,,0.00,VWS V13.01,2013-11-03 18:39:00,
2013-11-03 12:44:00,65.5,41.8,30.06,SSE,157,7.0,32.0,42,11.41,,,0.00,VWS V13.01,2013-11-03 18:44:00,
2013-11-03 12:49:00,65.6,41.9,30.05,SSE,164,0.0,32.0,42,11.41,,,0.00,VWS V13.01,2013-11-03 18:49:00,
2013-11-03 12:54:00,66.6,41.5,30.05,SSE,164,0.0,32.0,40,11.41,,,0.00,VWS V13.01,2013-11-03 18:54:00,
2013-11-03 12:59:00,67.1,42.6,30.05,SSE,164,0.0,32.0,41,11.41,,,0.00,VWS V13.01,2013-11-03 18:59:00,
2013-11-03 13:04:00,67.2,42.7,30.04,SSE,167,0.0,32.0,41,11.41,,,0.00,VWS V13.01,2013-11-03 19:04:00,
2013-11-03 13:09:00,67.3,42.8,30.04,South,171,11.0,32.0,41,11.41,,,0.00,VWS V13.01,2013-11-03 19:09:00,
2013-11-03 13:14:00,66.3,40.6,30.04,SSE,165,3.0,32.0,39,11.41,,,0.00,VWS V13.01,2013-11-03 19:14:00,
2013-11-03 13:19:00,67.2,42.7,30.03,SSE,165,5.0,32.0,41,11.41,,,0.00,VWS V13.01,2013-11-03 19:19:00,
2013-11-03 13:24:00,67.0,41.9,30.03,SSE,164,0.0,32.0,40,11.41,,,0.00,VWS V13.01,2013-11-03 19:24:00,
2013-11-03 13:29:00,66.7,42.3,30.03,SSE,164,0.0,32.0,41,11.41,,,0.00,VWS V13.01,2013-11-03 19:29:00,
2013-11-03 13:34:00,67.1,42.0,30.02,SSE,164,10.0,32.0,40,11.41,,,0.00,VWS V13.01,2013-11-03 19:34:00,
2013-11-03 13:39:00,66.9,41.2,30.02,SSE,164,0.0,32.0,39,11.41,,,0.00,VWS V13.01,2013-11-03 19:39:00,
2013-11-03 13:45:00,67.6,43.1,30.02,South,190,0.0,32.0,41,11.41,,,0.00,VWS V13.01,2013-11-03 19:45:00,
2013-11-03 13:50:00,68.5,41.9,30.02,South,187,5.0,32.0,38,11.41,,,0.00,VWS V13.01,2013-11-03 19:50:00,
2013-11-03 13:55:00,68.0,40.8,30.02,South,173,6.0,32.0,37,11.41,,,0.00,VWS V13.01,2013-11-03 19:55:00,
2013-11-03 14:00:00,68.3,41.0,30.02,SSE,167,8.0,32.0,37,11.41,,,0.00,VWS V13.01,2013-11-03 20:00:00,
2013-11-03 14:05:00,67.7,41.9,30.01,SSE,167,0.0,32.0,39,11.41,,,0.00,VWS V13.01,2013-11-03 20:05:00,
2013-11-03 14:10:00,67.7,41.2,30.01,SSE,167,0.0,32.0,38,11.41,,,0.00,VWS V13.01,2013-11-03 20:10:00,
2013-11-03 14:15:00,68.4,40.4,30.01,SSE,167,0.0,32.0,36,11.41,,,0.00,VWS V13.01,2013-11-03 20:15:00,
2013-11-03 14:20:00,69.0,41.0,30.00,SSE,167,1.0,32.0,36,11.41,,,0.00,VWS V13.01,2013-11-03 20:20:00,
2013-11-03 14:25:00,67.6,41.1,30.00,SSE,167,0.0,32.0,38,11.41,,,0.00,VWS V13.01,2013-11-03 20:25:00,
2013-11-03 14:30:00,66.8,40.4,30.00,SSE,163,0.0,32.0,38,11.41,,,0.00,VWS V13.01,2013-11-03 20:30:00,
2013-11-03 14:35:00,67.2,40.1,30.00,SSE,163,2.0,32.0,37,11.41,,,0.00,VWS V13.01,2013-11-03 20:35:00,
2013-11-03 14:40:00,67.9,39.3,30.00,SSE,157,5.0,32.0,35,11.41,,,0.00,VWS V13.01,2013-11-03 20:40:00,
2013-11-03 14:45:00,67.2,39.4,30.00,SSE,155,5.0,32.0,36,11.41,,,0.00,VWS V13.01,2013-11-03 20:45:00,
2013-11-03 14:50:00,67.3,42.8,30.00,SSE,159,6.0,32.0,41,11.41,,,0.00,VWS V13.01,2013-11-03 20:50:00,
2013-11-03 14:55:00,67.6,41.1,30.00,SSE,159,3.0,32.0,38,11.41,,,0.00,VWS V13.01,2013-11-03 20:55:00,
2013-11-03 15:00:00,68.0,41.5,30.00,SSE,153,7.0,32.0,38,11.41,,,0.00,VWS V13.01,2013-11-03 21:00:00,
2013-11-03 15:05:00,67.4,40.2,30.00,SSE,155,3.0,32.0,37,11.41,,,0.00,VWS V13.01,2013-11-03 21:05:00,
2013-11-03 15:10:00,67.0,40.6,30.00,SSE,155,0.0,32.0,38,11.41,,,0.00,VWS V13.01,2013-11-03 21:10:00,
2013-11-03 15:15:00,67.9,40.7,30.00,SSE,155,0.0,32.0,37,11.41,,,0.00,VWS V13.01,2013-11-03 21:15:00,
2013-11-03 15:20:00,68.4,43.2,29.99,SSE,155,0.0,32.0,40,11.41,,,0.00,VWS V13.01,2013-11-03 21:20:00,
2013-11-03 15:25:00,68.5,43.2,29.99,SSW,200,0.0,32.0,40,11.41,,,0.00,VWS V13.01,2013-11-03 21:25:00,
2013-11-03 15:30:00,68.1,42.2,29.99,SSE,161,0.0,32.0,39,11.41,,,0.00,VWS V13.01,2013-11-03 21:30:00,
2013-11-03 15:35:00,68.5,42.6,29.99,SSE,159,6.0,32.0,39,11.41,,,0.00,VWS V13.01,2013-11-03 21:35:00,
2013-11-03 15:40:00,68.8,42.2,29.99,SSW,194,4.0,32.0,38,11.41,,,0.00,VWS V13.01,2013-11-03 21:40:00,
2013-11-03 15:45:00,68.3,41.7,29.99,SSW,204,3.0,32.0,38,11.41,,,0.00,VWS V13.01,2013-11-03 21:45:00,
2013-11-03 15:50:00,67.9,42.1,29.99,SSW,196,0.0,32.0,39,11.41,,,0.00,VWS V13.01,2013-11-03 21:50:00,
2013-11-03 15:55:00,67.8,41.3,29.99,South,190,5.0,32.0,38,11.41,,,0.00,VWS V13.01,2013-11-03 21:55:00,
2013-11-03 16:01:00,68.5,42.6,29.99,South,171,7.0,32.0,39,11.41,,,0.00,VWS V13.01,2013-11-03 22:01:00,
2013-11-03 16:06:00,67.6,41.1,29.99,South,179,10.0,32.0,38,11.41,,,0.00,VWS V13.01,2013-11-03 22:06:00,
2013-11-03 16:11:00,66.9,40.5,29.99,South,178,2.0,32.0,38,11.41,,,0.00,VWS V13.01,2013-11-03 22:11:00,
2013-11-03 16:16:00,66.5,39.5,29.99,South,170,0.0,32.0,37,11.41,,,0.00,VWS V13.01,2013-11-03 22:16:00,
2013-11-03 16:21:00,66.1,39.8,29.98,SSE,165,3.0,32.0,38,11.41,,,0.00,VWS V13.01,2013-11-03 22:21:00,
2013-11-03 16:26:00,65.6,40.7,29.98,SSE,161,5.0,32.0,40,11.41,,,0.00,VWS V13.01,2013-11-03 22:26:00,
2013-11-03 16:31:00,65.6,40.7,29.98,SSE,162,4.0,32.0,40,11.41,,,0.00,VWS V13.01,2013-11-03 22:31:00,
2013-11-03 16:36:00,65.6,40.7,29.98,SSE,155,0.0,32.0,40,11.41,,,0.00,VWS V13.01,2013-11-03 22:36:00,
2013-11-03 16:41:00,65.5,40.6,29.98,SSE,155,6.0,32.0,40,11.41,,,0.00,VWS V13.01,2013-11-03 22:41:00,
2013-11-03 16:46:00,65.3,41.0,29.98,SSE,155,0.0,32.0,41,11.41,,,0.00,VWS V13.01,2013-11-03 22:46:00,
2013-11-03 16:51:00,65.2,40.9,29.98,SSE,155,5.0,32.0,41,11.41,,,0.00,VWS V13.01,2013-11-03 22:51:00,
2013-11-03 16:56:00,65.0,40.8,29.98,SSE,156,3.0,32.0,41,11.41,,,0.00,VWS V13.01,2013-11-03 22:56:00,
2013-11-03 17:01:00,64.9,41.3,29.99,SSE,156,0.0,32.0,42,11.41,,,0.00,VWS V13.01,2013-11-03 23:01:00,
2013-11-03 17:06:00,64.9,41.3,29.99,SSE,156,0.0,32.0,42,11.41,,,0.00,VWS V13.01,2013-11-03 23:06:00,
2013-11-03 17:11:00,64.8,41.8,29.99,SSE,156,0.0,32.0,43,11.41,,,0.00,VWS V13.01,2013-11-03 23:11:00,
2013-11-03 17:16:00,64.8,40.6,29.99,SSE,167,0.0,32.0,41,11.41,,,0.00,VWS V13.01,2013-11-03 23:16:00,
2013-11-03 17:21:00,64.7,40.5,29.99,SSE,167,0.0,32.0,41,11.41,,,0.00,VWS V13.01,2013-11-03 23:21:00,
2013-11-03 17:26:00,64.6,40.4,29.99,SSE,167,0.0,32.0,41,11.41,,,0.00,VWS V13.01,2013-11-03 23:26:00,
2013-11-03 17:31:00,64.5,40.3,29.99,SSE,167,0.0,32.0,41,11.41,,,0.00,VWS V13.01,2013-11-03 23:31:00,
2013-11-03 17:36:00,64.4,40.8,29.99,South,175,4.0,32.0,42,11.41,,,0.00,VWS V13.01,2013-11-03 23:36:00,
2013-11-03 17:41:00,64.3,40.1,29.99,South,172,0.0,32.0,41,11.41,,,0.00,VWS V13.01,2013-11-03 23:41:00,
2013-11-03 17:46:00,64.3,39.5,29.99,South,178,5.0,32.0,40,11.41,,,0.00,VWS V13.01,2013-11-03 23:46:00,
2013-11-03 17:51:00,64.4,40.2,29.99,South,177,4.0,32.0,41,11.41,,,0.00,VWS V13.01,2013-11-03 23:51:00,
2013-11-03 17:56:00,64.4,39.6,29.99,South,176,0.0,32.0,40,11.41,,,0.00,VWS V13.01,2013-11-03 23:56:00,
2013-11-03 18:01:00,64.4,40.2,30.00,South,176,6.0,32.0,41,11.41,,,0.00,VWS V13.01,2013-11-04 00:01:00,
2013-11-03 18:06:00,64.3,40.1,30.00,South,177,0.0,32.0,41,11.41,,,0.00,VWS V13.01,2013-11-04 00:06:00,
2013-11-03 18:11:00,64.2,40.0,30.00,South,176,0.0,32.0,41,11.41,,,0.00,VWS V13.01,2013-11-04 00:11:00,
2013-11-03 18:16:00,64.1,39.9,30.00,South,176,0.0,32.0,41,11.41,,,0.00,VWS V13.01,2013-11-04 00:16:00,
2013-11-03 18:21:00,64.0,40.5,30.00,South,176,0.0,32.0,42,11.41,,,0.00,VWS V13.01,2013-11-04 00:21:00,
2013-11-03 18:26:00,63.9,40.4,30.00,South,177,0.0,32.0,42,11.41,,,0.00,VWS V13.01,2013-11-04 00:26:00,
2013-11-03 18:31:00,63.8,40.3,30.00,South,177,4.0,32.0,42,11.41,,,0.00,VWS V13.01,2013-11-04 00:31:00,
2013-11-03 18:36:00,63.7,40.8,30.00,South,177,0.0,32.0,43,11.41,,,0.00,VWS V13.01,2013-11-04 00:36:00,
2013-11-03 18:41:00,63.7,40.2,30.00,South,177,0.0,32.0,42,11.41,,,0.00,VWS V13.01,2013-11-04 00:41:00,
2013-11-03 18:46:00,63.6,40.7,30.00,South,177,0.0,32.0,43,11.41,,,0.00,VWS V13.01,2013-11-04 00:46:00,
2013-11-03 18:51:00,63.4,41.1,30.00,South,177,0.0,32.0,44,11.41,,,0.00,VWS V13.01,2013-11-04 00:51:00,
2013-11-03 18:56:00,63.2,41.5,30.00,South,177,0.0,32.0,45,11.41,,,0.00,VWS V13.01,2013-11-04 00:56:00,
2013-11-03 19:01:00,63.0,41.9,30.00,South,176,0.0,32.0,46,11.41,,,0.00,VWS V13.01,2013-11-04 01:01:00,
2013-11-03 19:06:00,62.9,41.8,30.00,South,177,0.0,32.0,46,11.41,,,0.00,VWS V13.01,2013-11-04 01:06:00,
2013-11-03 19:11:00,62.7,42.2,30.00,South,177,0.0,32.0,47,11.41,,,0.00,VWS V13.01,2013-11-04 01:11:00,
2013-11-03 19:16:00,62.7,42.8,30.01,South,177,0.0,32.0,48,11.41,,,0.00,VWS V13.01,2013-11-04 01:16:00,
2013-11-03 19:21:00,62.5,43.1,30.01,South,176,0.0,32.0,49,11.41,,,0.00,VWS V13.01,2013-11-04 01:21:00,
2013-11-03 19:26:00,62.4,43.0,30.01,South,177,0.0,32.0,49,11.41,,,0.00,VWS V13.01,2013-11-04 01:26:00,
2013-11-03 19:31:00,62.3,43.4,30.01,South,177,0.0,32.0,50,11.41,,,0.00,VWS V13.01,2013-11-04 01:31:00,
2013-11-03 19:36:00,62.0,43.2,30.01,South,176,0.0,32.0,50,11.41,,,0.00,VWS V13.01,2013-11-04 01:36:00,
2013-11-03 19:41:00,61.8,43.5,30.01,South,177,0.0,32.0,51,11.41,,,0.00,VWS V13.01,2013-11-04 01:41:00,
2013-11-03 19:46:00,61.6,43.3,30.01,South,177,0.0,32.0,51,11.41,,,0.00,VWS V13.01,2013-11-04 01:46:00,
2013-11-03 19:51:00,61.3,43.5,30.01,South,177,0.0,32.0,52,11.41,,,0.00,VWS V13.01,2013-11-04 01:51:00,
2013-11-03 19:57:00,60.9,43.2,30.01,South,177,0.0,32.0,52,11.41,,,0.00,VWS V13.01,2013-11-04 01:57:00,
2013-11-03 20:02:00,60.8,44.1,30.01,South,177,0.0,32.0,54,11.41,,,0.00,VWS V13.01,2013-11-04 02:02:00,
2013-11-03 20:07:00,60.7,44.5,30.01,South,177,0.0,32.0,55,11.41,,,0.00,VWS V13.01,2013-11-04 02:07:00,
2013-11-03 20:12:00,60.7,44.9,30.01,South,177,0.0,32.0,56,11.41,,,0.00,VWS V13.01,2013-11-04 02:12:00,
2013-11-03 20:17:00,60.6,44.8,30.02,South,176,0.0,32.0,56,11.41,,,0.00,VWS V13.01,2013-11-04 02:17:00,
2013-11-03 20:22:00,60.6,44.8,30.02,South,176,0.0,32.0,56,11.41,,,0.00,VWS V13.01,2013-11-04 02:22:00,
2013-11-03 20:27:00,60.5,44.3,30.02,South,176,0.0,32.0,55,11.41,,,0.00,VWS V13.01,2013-11-04 02:27:00,
2013-11-03 20:32:00,60.6,45.3,30.02,South,176,0.0,32.0,57,11.41,,,0.00,VWS V13.01,2013-11-04 02:32:00,
2013-11-03 20:37:00,60.7,45.4,30.02,South,177,0.0,32.0,57,11.41,,,0.00,VWS V13.01,2013-11-04 02:37:00,
2013-11-03 20:42:00,60.7,45.4,30.02,South,176,0.0,32.0,57,11.41,,,0.00,VWS V13.01,2013-11-04 02:42:00,
2013-11-03 20:47:00,60.8,45.0,30.00,South,177,0.0,32.0,56,11.41,,,0.00,VWS V13.01,2013-11-04 02:47:00,
2013-11-03 20:52:00,61.0,45.2,30.00,South,176,4.0,32.0,56,11.41,,,0.00,VWS V13.01,2013-11-04 02:52:00,
2013-11-03 20:57:00,61.3,45.5,30.00,South,175,6.0,32.0,56,11.41,,,0.00,VWS V13.01,2013-11-04 02:57:00,
2013-11-03 21:02:00,61.8,46.0,30.00,SSE,168,4.0,32.0,56,11.41,,,0.00,VWS V13.01,2013-11-04 03:02:00,
2013-11-03 21:07:00,62.1,46.7,30.00,SSE,165,0.0,32.0,57,11.41,,,0.00,VWS V13.01,2013-11-04 03:07:00,
2013-11-03 21:12:00,62.3,47.3,30.00,SSE,164,0.0,32.0,58,11.41,,,0.00,VWS V13.01,2013-11-04 03:12:00,
2013-11-03 21:17:00,62.5,48.0,30.00,SSE,165,0.0,32.0,59,11.41,,,0.00,VWS V13.01,2013-11-04 03:17:00,
2013-11-03 21:22:00,62.6,48.5,30.00,SSE,161,4.0,32.0,60,11.41,,,0.00,VWS V13.01,2013-11-04 03:22:00,
2013-11-03 21:27:00,62.7,49.1,30.00,SSE,159,0.0,32.0,61,11.41,,,0.00,VWS V13.01,2013-11-04 03:27:00,
2013-11-03 21:32:00,62.8,49.6,29.99,SSE,160,4.0,32.0,62,11.41,,,0.00,VWS V13.01,2013-11-04 03:32:00,
2013-11-03 21:37:00,62.7,49.5,29.99,SSE,150,6.0,32.0,62,11.41,,,0.00,VWS V13.01,2013-11-04 03:37:00,
2013-11-03 21:42:00,62.8,50.0,29.99,SSE,168,3.0,32.0,63,11.41,,,0.00,VWS V13.01,2013-11-04 03:42:00,
2013-11-03 21:47:00,62.8,50.0,29.98,SSE,161,0.0,32.0,63,11.41,,,0.00,VWS V13.01,2013-11-04 03:47:00,
2013-11-03 21:52:00,62.8,50.5,29.98,SSE,167,6.0,32.0,64,11.41,,,0.00,VWS V13.01,2013-11-04 03:52:00,
2013-11-03 21:57:00,62.8,50.5,29.98,SSE,160,4.0,32.0,64,11.41,,,0.00,VWS V13.01,2013-11-04 03:57:00,
2013-11-03 22:02:00,62.7,50.4,29.98,SSE,160,5.0,32.0,64,11.41,,,0.00,VWS V13.01,2013-11-04 04:02:00,
2013-11-03 22:07:00,62.5,50.6,29.98,SSE,167,4.0,32.0,65,11.41,,,0.00,VWS V13.01,2013-11-04 04:07:00,
2013-11-03 22:12:00,62.4,50.9,29.98,SSE,167,9.0,32.0,66,11.41,,,0.00,VWS V13.01,2013-11-04 04:12:00,
2013-11-03 22:17:00,62.3,50.8,29.97,SSE,163,4.0,32.0,66,11.41,,,0.00,VWS V13.01,2013-11-04 04:17:00,
2013-11-03 22:22:00,62.2,51.1,29.97,SSE,163,8.0,32.0,67,11.41,,,0.00,VWS V13.01,2013-11-04 04:22:00,
2013-11-03 22:27:00,62.2,51.1,29.97,SSE,165,5.0,32.0,67,11.41,,,0.00,VWS V13.01,2013-11-04 04:27:00,
2013-11-03 22:32:00,62.1,51.4,29.97,SSE,161,7.0,32.0,68,11.41,,,0.00,VWS V13.01,2013-11-04 04:32:00,
2013-11-03 22:37:00,62.0,51.3,29.97,SSE,161,0.0,32.0,68,11.41,,,0.00,VWS V13.01,2013-11-04 04:37:00,
2013-11-03 22:42:00,61.9,51.2,29.97,SSE,158,0.0,32.0,68,11.41,,,0.00,VWS V13.01,2013-11-04 04:42:00,
2013-11-03 22:47:00,61.8,51.5,29.97,South,191,4.0,32.0,69,11.41,,,0.00,VWS V13.01,2013-11-04 04:47:00,
2013-11-03 22:52:00,61.7,51.8,29.97,SSW,196,0.0,32.0,70,11.41,,,0.00,VWS V13.01,2013-11-04 04:52:00,
2013-11-03 22:57:00,61.5,52.0,29.97,South,171,2.0,32.0,71,11.41,,,0.00,VWS V13.01,2013-11-04 04:57:00,
2013-11-03 23:01:00,61.5,52.0,29.97,SSW,196,0.0,32.0,71,11.41,,,0.00,VWS V13.01,2013-11-04 05:01:00,
2013-11-03 23:02:00,61.5,52.0,29.98,South,171,10.0,32.0,71,11.41,,,0.00,VWS V13.01,2013-11-04 05:02:00,
2013-11-03 23:07:00,61.6,52.1,29.98,SSE,165,8.0,32.0,71,11.41,,,0.00,VWS V13.01,2013-11-04 05:07:00,
2013-11-03 23:12:00,61.6,52.1,29.98,SSE,160,0.0,32.0,71,11.41,,,0.00,VWS V13.01,2013-11-04 05:12:00,
2013-11-03 23:17:00,61.5,52.0,29.98,South,178,0.0,32.0,71,11.41,,,0.00,VWS V13.01,2013-11-04 05:17:00,
2013-11-03 23:22:00,61.4,52.3,29.98,SSW,207,3.0,32.0,72,11.41,,,0.00,VWS V13.01,2013-11-04 05:22:00,
2013-11-03 23:27:00,61.3,52.2,29.98,South,171,4.0,32.0,72,11.41,,,0.00,VWS V13.01,2013-11-04 05:27:00,
2013-11-03 23:32:00,61.2,52.1,29.95,SSE,164,10.0,32.0,72,11.41,,,0.00,VWS V13.01,2013-11-04 05:32:00,
2013-11-03 23:37:00,61.1,52.4,29.95,SSE,159,4.0,32.0,73,11.41,,,0.00,VWS V13.01,2013-11-04 05:37:00,
2013-11-03 23:42:00,60.9,52.2,29.95,South,180,3.0,32.0,73,11.41,,,0.00,VWS V13.01,2013-11-04 05:42:00,
2013-11-03 23:47:00,60.9,52.2,29.97,South,188,14.0,32.0,73,11.41,,,0.00,VWS V13.01,2013-11-04 05:47:00,
2013-11-03 23:52:00,60.9,52.6,29.97,SSW,209,0.0,32.0,74,11.41,,,0.00,VWS V13.01,2013-11-04 05:52:00,
2013-11-03 23:57:00,60.9,52.6,29.97,SW,221,5.0,32.0,74,11.41,,,0.00,VWS V13.01,2013-11-04 05:57:00,